[[{"header":{"parameterUnit":"m.s-1","parameterCategory":1,"la1":30.2991,"la2":30.254,"lo1":-89.0895,"lo2":-89.0444,"dy":0.0017,"dx":0.0017,"nx":28,"ny":28,"refTime":"2023-09-15T09:00:00:Z","depth":0,"parameterNumber":2,"parameterNumberName":"U-component_of_WINDS"},"data":[0,0,0,0,0,0,0,0,0,0,0,0,0,0,0,0,0,0,0,0,0,0,0,0,0,0,0,0,0,0,0,0,0,0,0,0,0,0,0,0,0,0,0,0,0,0,0,0,0,0,0,0,0,0,0,0,0,0,-1.6394,-1.6394,0,-1.638,-1.638,-1.638,-1.6289,-1.6287,-1.6285,-1.6283,-1.6271,-1.6273,-1.6275,0,0,0,0,0,0,0,0,0,0,0,0,0,-1.6344,-1.6345,-1.6394,-1.6394,-1.6394,-1.638,-1.638,-1.638,-1.629,-1.6287,-1.6284,-1.6282,-1.6271,-1.6273,-1.6275,0,0,0,0,0,0,0,0,0,0,0,0,0,-1.6351,-1.6345,-1.6394,-1.6347,-1.6343,-1.638,-1.638,-1.638,-1.629,-1.6287,-1.6283,-1.628,-1.627,-1.6272,-1.6275,-1.6358,0,0,-1.6283,-1.6284,0,0,0,0,0,0,0,0,-1.6351,-1.6353,-1.6354,-1.635,-1.6346,-1.6333,-1.6358,-1.6373,-1.6291,-1.631,-1.6283,-1.6279,-1.6295,-1.6295,-1.63,-1.6357,-1.6357,-1.6283,-1.6285,-1.6286,-1.6287,0,0,0,0,0,0,0,-1.6351,-1.6353,-1.6389,-1.6354,-1.6349,-1.6327,-1.6324,-1.636,-1.6321,-1.6308,-1.6302,-1.6301,-1.6292,-1.6298,-1.6299,-1.6357,-1.6283,-1.6286,-1.6287,-1.6288,-1.648,-1.6483,0,0,0,0,0,0,-1.6356,-1.6354,-1.6389,-1.6388,-1.634,-1.6331,-1.6328,-1.634,-1.6321,-1.6314,-1.6304,-1.6297,-1.6295,-1.6296,-1.6298,-1.6392,-1.6286,-1.6289,-1.629,-1.6476,-1.648,-1.6484,0,0,0,0,0,0,-1.6356,-1.636,-1.639,-1.6369,-1.6371,-1.6335,-1.635,-1.6342,-1.6348,-1.6317,-1.631,-1.6317,-1.6292,-1.6294,-1.6343,-1.6391,-1.629,-1.6292,-1.6472,-1.6477,-1.6482,-1.6583,0,0,0,0,0,0,-1.6355,-1.6361,-1.6392,-1.637,-1.6373,-1.6435,-1.6353,-1.6344,-1.6352,-1.6343,-1.6328,-1.6322,-1.629,-1.634,-1.6346,-1.6393,-1.6294,-1.6467,-1.6474,-1.6481,-1.6575,-1.6591,-1.6604,0,0,0,0,0,-1.6353,-1.6422,-1.6394,-1.6399,-1.6411,-1.6438,-1.6439,-1.64,-1.6356,-1.6387,-1.6367,-1.6322,-1.6385,-1.6345,-1.6351,-1.64,-1.6464,-1.6472,-1.648,-1.6569,-1.6588,-1.6604,0,0,0,0,0,0,-1.6452,-1.6418,-1.6387,-1.6451,-1.6448,-1.6423,-1.646,-1.6422,-1.6432,-1.6423,-1.6374,-1.6371,-1.6427,-1.6418,-1.6375,-1.6478,-1.6417,-1.6426,-1.6482,-1.65,-1.6514,-1.6515,-1.6296,0,0,0,0,0,-1.648,-1.6505,-1.6475,-1.6534,-1.6534,-1.6498,-1.6508,-1.6478,-1.6473,-1.6472,-1.6455,-1.6453,-1.6472,-1.6485,-1.6501,-1.6573,-1.6568,-1.6609,-1.6624,-1.6636,-1.6645,-1.6681,-1.6699,-1.651,-1.651,-1.651,0,0,-1.6541,-1.6526,-1.6544,-1.6553,-1.6547,-1.6574,-1.6497,-1.6529,-1.6548,-1.6477,-1.6521,-1.6509,-1.6503,-1.6564,-1.6589,-1.6558,-1.6696,-1.6646,-1.6656,-1.6658,-1.6691,-1.6709,-1.6725,-1.6515,-1.6514,-1.6513,0,0,-1.6664,-1.6655,-1.6703,-1.6698,-1.6689,-1.6664,-1.6676,-1.6656,-1.6645,-1.6688,-1.6634,-1.6657,-1.669,-1.6688,-1.6691,-1.6811,-1.677,-1.6818,-1.6894,-1.693,-1.6945,-1.6958,-1.6999,-1.7015,-1.6826,-1.6827,-1.6827,0,-1.6741,-1.6778,-1.6732,-1.6767,-1.6772,-1.6707,-1.6754,-1.6752,-1.6749,-1.6754,-1.6719,-1.6758,-1.675,-1.6808,-1.6837,-1.6842,-1.6853,-1.6819,-1.6946,-1.6959,-1.697,-1.7009,-1.7025,-1.6833,-1.6832,-1.6831,-1.6831,0,-1.6871,-1.6898,-1.6937,-1.6934,-1.6944,-1.6985,-1.6946,-1.6961,-1.6929,-1.6908,-1.6953,-1.694,-1.6951,-1.6963,-1.6933,-1.7016,-1.6997,-1.6955,-1.6892,-1.6995,-1.7031,-1.7045,-1.6841,-1.6839,-1.6837,-1.6836,0,0,-1.7058,-1.7028,-1.7043,-1.704,-1.7024,-1.7044,-1.7082,-1.7091,-1.7105,-1.7105,-1.7135,-1.7164,-1.7124,-1.7127,-1.7096,-1.7128,-1.7222,-1.7081,-1.708,-1.7107,-1.7312,-1.7343,-1.7362,-1.7194,-1.7197,-1.7199,-1.7312,0,-1.7175,-1.7237,-1.7196,-1.7264,-1.7287,-1.7225,-1.7257,-1.7251,-1.7232,-1.7249,-1.7228,-1.7249,-1.7196,-1.7197,-1.7225,-1.7205,-1.7262,-1.7196,-1.7222,-1.7223,-1.7225,-1.738,-1.7414,-1.7521,-1.7326,-1.7328,-1.733,0,-1.7321,-1.7325,-1.7395,-1.7373,-1.7381,-1.7411,-1.7415,-1.7433,-1.7424,-1.7408,-1.7411,-1.7372,-1.7407,-1.7345,-1.7392,-1.7348,-1.7356,-1.7347,-1.735,-1.7351,-1.7283,-1.7385,-1.7555,-1.7571,-1.7352,-1.735,-1.7349,0,-1.7449,-1.7472,-1.7516,-1.7516,-1.7492,-1.7514,-1.7505,-1.7493,-1.7501,-1.7505,-1.7509,-1.7518,-1.7523,-1.753,-1.7494,-1.7453,-1.7546,-1.7481,-1.7533,-1.7534,-1.7556,-1.7555,-1.7729,-1.7562,-1.7562,-1.7562,-1.7561,0,-1.7584,-1.7629,-1.7573,-1.7601,-1.7649,-1.7601,-1.7651,-1.7635,-1.7625,-1.7648,-1.7595,-1.7618,-1.7569,-1.7587,-1.7559,-1.7602,-1.7605,-1.7592,-1.7584,-1.7597,-1.7598,-1.7601,-1.7593,-1.7566,-1.7565,-1.7564,-1.7563,0,-1.7735,-1.77,-1.7744,-1.7716,-1.771,-1.7747,-1.7723,-1.7747,-1.7723,-1.7753,-1.7758,-1.7721,-1.7739,-1.7704,-1.7718,-1.7699,-1.7759,-1.7739,-1.7761,-1.7755,-1.7809,-1.7804,-1.799,-1.8012,-1.7833,-1.7834,-1.7836,0,-1.7824,-1.7857,-1.7832,-1.7843,-1.7836,-1.7855,-1.7861,-1.7816,-1.7825,-1.7817,-1.7842,-1.7855,-1.7863,-1.7895,-1.7871,-1.7881,-1.7861,-1.7925,-1.7862,-1.7873,-1.7861,-1.7859,-1.7861,-1.7938,-1.7941,-1.7942,-1.7944,0,-1.7985,-1.7965,-1.7976,-1.798,-1.7989,-1.7991,-1.799,-1.8002,-1.7953,-1.7966,-1.7983,-1.7989,-1.8002,-1.8016,-1.802,-1.8011,-1.797,-1.7964,-1.7976,-1.7989,-1.8,-1.7994,-1.7796,-1.796,-1.7958,-1.7957,-1.7956,-1.7955,-1.8107,-1.8132,-1.8118,-1.8131,-1.8124,-1.8123,-1.8144,-1.8122,-1.8135,-1.8141,-1.8113,-1.8136,-1.8125,-1.8126,-1.8121,-1.8138,-1.811,-1.8128,-1.8132,-1.8138,-1.8146,-1.7997,-1.8139,-1.8139,-1.8138,-1.8138,-1.8137,0,-1.8264,-1.8251,-1.8263,-1.8261,-1.8272,-1.823,-1.8225,-1.8237,-1.8258,-1.825,-1.8259,-1.8278,-1.829,-1.8266,-1.8274,-1.8293,-1.8274,-1.8296,-1.8294,-1.8293,-1.8172,-1.8159,-1.8311,-1.8311,-1.8311,-1.8311,-1.8311,-1.8311,-1.8347,-1.8387,-1.8365,-1.8401,-1.8387,-1.8408,-1.8409,-1.8407,-1.8401,-1.8424,-1.8433,-1.8417,-1.8402,-1.8409,-1.8418,-1.8411,-1.8416,-1.8445,-1.8431,-1.8319,-1.8302,-1.8285,-1.8274,-1.8447,-1.8447,-1.8551,-1.8552,-1.8552]},{"header":{"parameterUnit":"m.s-1","parameterCategory":1,"la1":30.2991,"la2":30.254,"lo1":-89.0895,"lo2":-89.0444,"dy":0.0017,"dx":0.0017,"nx":28,"ny":28,"refTime":"2023-09-15T09:00:00:Z","depth":0,"parameterNumber":3,"parameterNumberName":"V-component_of_WINDS"},"data":[0,0,0,0,0,0,0,0,0,0,0,0,0,0,0,0,0,0,0,0,0,0,0,0,0,0,0,0,0,0,0,0,0,0,0,0,0,0,0,0,0,0,0,0,0,0,0,0,0,0,0,0,0,0,0,0,0,0,-2.3643,-2.3644,0,-2.3717,-2.3718,-2.3718,-2.3738,-2.3738,-2.3737,-2.3737,-2.3808,-2.381,-2.3813,0,0,0,0,0,0,0,0,0,0,0,0,0,-2.3514,-2.3516,-2.3643,-2.3644,-2.3645,-2.3717,-2.3718,-2.3719,-2.3738,-2.3738,-2.3737,-2.3737,-2.3807,-2.381,-2.3813,0,0,0,0,0,0,0,0,0,0,0,0,0,-2.3577,-2.3517,-2.3643,-2.3663,-2.3666,-2.3716,-2.3718,-2.3719,-2.3738,-2.3738,-2.3737,-2.3736,-2.3807,-2.381,-2.3813,-2.3847,0,0,-2.3824,-2.3825,0,0,0,0,0,0,0,0,-2.3573,-2.3582,-2.3659,-2.3662,-2.3665,-2.3718,-2.3698,-2.3762,-2.3738,-2.3711,-2.3737,-2.3736,-2.3778,-2.3784,-2.3799,-2.3851,-2.3854,-2.3824,-2.3826,-2.3828,-2.3829,0,0,0,0,0,0,0,-2.3569,-2.3579,-2.3672,-2.366,-2.3664,-2.3667,-2.3675,-2.371,-2.3747,-2.3713,-2.3715,-2.3723,-2.378,-2.3796,-2.3801,-2.3855,-2.3824,-2.3827,-2.3829,-2.3831,-2.3936,-2.3936,0,0,0,0,0,0,-2.3562,-2.3575,-2.367,-2.3674,-2.3617,-2.367,-2.3679,-2.3701,-2.3747,-2.3753,-2.3724,-2.3724,-2.379,-2.3797,-2.3803,-2.3845,-2.3828,-2.3831,-2.3833,-2.3935,-2.3936,-2.3937,0,0,0,0,0,0,-2.3559,-2.357,-2.3667,-2.3625,-2.3638,-2.3673,-2.3697,-2.3703,-2.3719,-2.3755,-2.3761,-2.3734,-2.379,-2.3799,-2.3836,-2.3848,-2.3832,-2.3836,-2.3934,-2.3935,-2.3936,-2.3929,0,0,0,0,0,0,-2.3555,-2.3569,-2.3584,-2.3625,-2.364,-2.37,-2.3698,-2.3705,-2.3726,-2.3727,-2.3766,-2.3772,-2.379,-2.3831,-2.384,-2.3852,-2.3838,-2.3933,-2.3935,-2.3936,-2.3929,-2.393,-2.3931,0,0,0,0,0,-2.3551,-2.3578,-2.3584,-2.3595,-2.3659,-2.37,-2.3708,-2.373,-2.3727,-2.374,-2.3763,-2.3771,-2.3845,-2.3835,-2.3844,-2.3859,-2.3933,-2.3934,-2.3936,-2.3928,-2.393,-2.3931,0,0,0,0,0,0,-2.3536,-2.3584,-2.3591,-2.3634,-2.3663,-2.3704,-2.3722,-2.3731,-2.3761,-2.3761,-2.3785,-2.3794,-2.3829,-2.3848,-2.3835,-2.3893,-2.3889,-2.3893,-2.388,-2.3881,-2.3883,-2.3877,-2.3841,0,0,0,0,0,-2.3538,-2.3569,-2.3608,-2.3642,-2.3656,-2.3686,-2.3705,-2.3719,-2.375,-2.3762,-2.3788,-2.3816,-2.3846,-2.3865,-2.3894,-2.3932,-2.3939,-2.3946,-2.3947,-2.3948,-2.3951,-2.397,-2.3973,-2.3942,-2.3942,-2.3942,0,0,-2.3541,-2.3571,-2.3589,-2.364,-2.3664,-2.3694,-2.3697,-2.3729,-2.375,-2.3767,-2.3804,-2.3823,-2.3856,-2.3893,-2.3911,-2.391,-2.3961,-2.395,-2.3951,-2.3953,-2.3972,-2.3975,-2.3978,-2.3943,-2.3943,-2.3943,0,0,-2.3563,-2.359,-2.362,-2.3644,-2.3681,-2.3701,-2.3708,-2.3748,-2.3761,-2.3799,-2.3812,-2.3837,-2.3888,-2.3911,-2.3929,-2.3958,-2.3965,-2.3967,-2.3973,-2.3992,-2.3994,-2.3997,-2.4006,-2.4009,-2.3969,-2.3969,-2.3969,0,-2.3563,-2.361,-2.3634,-2.3665,-2.3686,-2.3703,-2.3732,-2.3754,-2.3798,-2.3811,-2.381,-2.3874,-2.3897,-2.3939,-2.3946,-2.3961,-2.3968,-2.3962,-2.3993,-2.3995,-2.3997,-2.4006,-2.401,-2.3969,-2.3969,-2.3969,-2.3969,0,-2.3607,-2.3639,-2.3658,-2.3702,-2.3725,-2.3755,-2.3781,-2.3802,-2.3813,-2.3833,-2.387,-2.3898,-2.3933,-2.3944,-2.3956,-2.3988,-2.3986,-2.3988,-2.3984,-2.4,-2.4008,-2.4012,-2.3969,-2.3969,-2.3969,-2.3969,0,0,-2.3622,-2.3677,-2.3684,-2.3703,-2.3745,-2.3769,-2.3799,-2.3834,-2.385,-2.388,-2.3904,-2.3947,-2.3949,-2.397,-2.3984,-2.4,-2.4019,-2.4,-2.4001,-2.4002,-2.4054,-2.4052,-2.4055,-2.4025,-2.4026,-2.4026,-2.4051,0,-2.3648,-2.3704,-2.3725,-2.377,-2.3799,-2.3815,-2.3841,-2.3868,-2.3886,-2.3912,-2.3932,-2.3961,-2.3963,-2.3975,-2.3992,-2.4014,-2.403,-2.4012,-2.4046,-2.4047,-2.4037,-2.406,-2.4058,-2.408,-2.4055,-2.4055,-2.4056,0,-2.3686,-2.3717,-2.3764,-2.3801,-2.3814,-2.3837,-2.3871,-2.3896,-2.3926,-2.3938,-2.3961,-2.3974,-2.4004,-2.3999,-2.4039,-2.4026,-2.4041,-2.4054,-2.4055,-2.4058,-2.4052,-2.4063,-2.4088,-2.4091,-2.4062,-2.4061,-2.4061,0,-2.369,-2.3744,-2.3779,-2.3795,-2.3839,-2.3855,-2.3874,-2.3904,-2.3923,-2.3951,-2.3964,-2.3995,-2.4012,-2.4035,-2.4055,-2.405,-2.4093,-2.409,-2.4103,-2.4102,-2.4111,-2.411,-2.4137,-2.4122,-2.4122,-2.4122,-2.4121,0,-2.3717,-2.3745,-2.3781,-2.3803,-2.3834,-2.3858,-2.3888,-2.3908,-2.3934,-2.3958,-2.3974,-2.3996,-2.4022,-2.4046,-2.4062,-2.4093,-2.41,-2.411,-2.4113,-2.4108,-2.4106,-2.4118,-2.4116,-2.4122,-2.4122,-2.4122,-2.4122,0,-2.3727,-2.3753,-2.3792,-2.3831,-2.3841,-2.3862,-2.3895,-2.3915,-2.3934,-2.3964,-2.3973,-2.4002,-2.4032,-2.4055,-2.4093,-2.4104,-2.4136,-2.414,-2.4126,-2.4128,-2.4139,-2.4137,-2.4173,-2.4179,-2.416,-2.4161,-2.4161,0,-2.3742,-2.3764,-2.3805,-2.3823,-2.3842,-2.3871,-2.3891,-2.3915,-2.3934,-2.397,-2.3986,-2.4017,-2.4044,-2.409,-2.4114,-2.4143,-2.4148,-2.4158,-2.4152,-2.4145,-2.4146,-2.4145,-2.4146,-2.4159,-2.4159,-2.4159,-2.4159,0,-2.3765,-2.3776,-2.3805,-2.3838,-2.3862,-2.3889,-2.3916,-2.3929,-2.3957,-2.3978,-2.401,-2.403,-2.407,-2.41,-2.4131,-2.4149,-2.4158,-2.4161,-2.4165,-2.416,-2.415,-2.4154,-2.4127,-2.416,-2.416,-2.416,-2.416,-2.416,-2.3777,-2.3797,-2.3829,-2.386,-2.3883,-2.3908,-2.3929,-2.3951,-2.3978,-2.4013,-2.4025,-2.4057,-2.4085,-2.4128,-2.4146,-2.417,-2.417,-2.4177,-2.4178,-2.4179,-2.4178,-2.4147,-2.4176,-2.4176,-2.4176,-2.4176,-2.4176,0,-2.38,-2.3822,-2.385,-2.3888,-2.3912,-2.392,-2.395,-2.3969,-2.3997,-2.4023,-2.4049,-2.4084,-2.4113,-2.4139,-2.4169,-2.4183,-2.4188,-2.419,-2.4189,-2.4193,-2.4177,-2.417,-2.4186,-2.4186,-2.4186,-2.4186,-2.4186,-2.4186,-2.3815,-2.3849,-2.3864,-2.3908,-2.3929,-2.3962,-2.3978,-2.4,-2.4021,-2.406,-2.4085,-2.4102,-2.4127,-2.4159,-2.4186,-2.4192,-2.4202,-2.4203,-2.421,-2.4195,-2.4194,-2.4193,-2.4186,-2.4205,-2.4205,-2.4224,-2.4224,-2.4224]}]]